Location: G�kdere
(37.0328°N, 30.9000°E)
Time: 21:40:45
(UTC+00:00)

BREEZE-M DEB (TANK) - Pass Details

Date: 03 March 2021
Orbit: 351 x 16374 km, 49.4° (Epoch: 19 April)

Event Time Altitude Azimuth Distance (km) Brightness Sun altitude
Rises 17:17:35 0° 249° (WSW) 5,272 8.4 -17.8°
Reaches altitude 10° 17:22:40 10° 257° (WSW) 2,911 7.1 -18.8°
Maximum altitude 17:27:39 33° 323° (NW) 905 3.8 -19.7°
Enters shadow 17:29:01 22° 12° (NNE) 1,022 3.6 -20.0°
